[[{"header":{"parameterUnit":"m.s-1","parameterCategory":2,"la1":30.2991,"la2":30.254,"lo1":-89.0895,"lo2":-89.0444,"dy":0.0017,"dx":0.0017,"nx":28,"ny":28,"refTime":"2024-06-19T03:00:00:Z","depth":"0","parameterNumber":2,"parameterNumberName":"U-component_of_CURRENTS"},"data":[0,0,0,0,0,0,0,0,0,0,0,0,0,0,0,0,0,0,0,0,0,0,0,0,0,0,0,0,0,0,0,0,0,0,0,0,0,0,0,0,0,0,0,0,0,0,0,0,0,0,0,0,0,0,0,0,0,0,-0.2172,-0.2173,0,-0.215,-0.2149,-0.2149,-0.2109,-0.2109,-0.2108,-0.2108,-0.2006,-0.2004,-0.2001,0,0,0,0,0,0,0,0,0,0,0,0,0,-0.2096,-0.2098,-0.2172,-0.2173,-0.2173,-0.215,-0.2149,-0.2148,-0.2109,-0.2109,-0.2108,-0.2108,-0.2007,-0.2004,-0.2001,0,0,0,0,0,0,0,0,0,0,0,0,0,-0.2102,-0.2099,-0.2172,-0.2155,-0.2153,-0.215,-0.2149,-0.2148,-0.2109,-0.2109,-0.2108,-0.2108,-0.2008,-0.2004,-0.2001,-0.1983,0,0,-0.1989,-0.1987,0,0,0,0,0,0,0,0,-0.2102,-0.2104,-0.2157,-0.2156,-0.2155,-0.2137,-0.2086,-0.2091,-0.2109,-0.2119,-0.2108,-0.2108,-0.2047,-0.204,-0.2029,-0.1979,-0.1974,-0.1989,-0.1986,-0.1985,-0.1984,0,0,0,0,0,0,0,-0.2101,-0.2104,-0.2157,-0.2158,-0.2156,-0.212,-0.212,-0.2086,-0.2079,-0.2118,-0.2117,-0.2124,-0.2045,-0.2033,-0.2026,-0.1973,-0.1989,-0.1985,-0.1983,-0.1982,-0.1917,-0.1917,0,0,0,0,0,0,-0.2122,-0.2105,-0.2158,-0.2157,-0.2134,-0.2122,-0.2122,-0.2138,-0.2081,-0.2074,-0.2125,-0.2123,-0.2039,-0.203,-0.2022,-0.2017,-0.1985,-0.1981,-0.1979,-0.1916,-0.1917,-0.1918,0,0,0,0,0,0,-0.212,-0.2127,-0.2159,-0.2134,-0.2137,-0.2125,-0.2142,-0.2138,-0.2131,-0.2088,-0.2078,-0.2123,-0.2039,-0.2027,-0.2001,-0.2012,-0.1979,-0.1976,-0.1916,-0.1916,-0.1917,-0.1995,0,0,0,0,0,0,-0.2118,-0.2127,-0.2136,-0.2136,-0.2139,-0.2169,-0.2143,-0.2138,-0.2138,-0.2135,-0.2083,-0.2073,-0.2037,-0.2007,-0.1997,-0.2006,-0.1973,-0.1915,-0.1916,-0.1917,-0.1992,-0.1998,-0.2004,0,0,0,0,0,-0.2115,-0.2133,-0.2136,-0.2143,-0.2156,-0.2171,-0.2168,-0.2153,-0.2139,-0.2143,-0.2107,-0.2075,-0.2006,-0.2004,-0.1993,-0.2001,-0.1914,-0.1916,-0.1917,-0.1989,-0.1997,-0.2004,0,0,0,0,0,0,-0.2101,-0.2132,-0.2135,-0.216,-0.2172,-0.2166,-0.2167,-0.216,-0.2135,-0.2125,-0.2079,-0.2067,-0.2048,-0.2015,-0.2014,-0.1986,-0.1956,-0.1955,-0.2015,-0.2022,-0.2028,-0.2026,-0.197,0,0,0,0,0,-0.2106,-0.2128,-0.2151,-0.2169,-0.2179,-0.2174,-0.2175,-0.2169,-0.2154,-0.2143,-0.211,-0.2072,-0.2044,-0.2026,-0.1993,-0.1976,-0.1959,-0.1975,-0.1981,-0.1987,-0.1978,-0.1964,-0.1968,-0.1922,-0.1922,-0.1922,0,0,-0.2105,-0.2125,-0.2136,-0.2167,-0.217,-0.2189,-0.2172,-0.2182,-0.2187,-0.2134,-0.2121,-0.2091,-0.2044,-0.2028,-0.2017,-0.2002,-0.1998,-0.1988,-0.1993,-0.1981,-0.1966,-0.197,-0.1974,-0.1922,-0.1922,-0.1922,0,0,-0.2117,-0.2134,-0.2159,-0.2175,-0.2196,-0.2196,-0.2206,-0.2208,-0.2199,-0.2192,-0.2155,-0.2134,-0.2091,-0.2063,-0.2042,-0.2061,-0.2032,-0.2054,-0.2082,-0.207,-0.2073,-0.2076,-0.2094,-0.2098,-0.2057,-0.2057,-0.2057,0,-0.2114,-0.2151,-0.2165,-0.2194,-0.2207,-0.2206,-0.2229,-0.2224,-0.2215,-0.2209,-0.2197,-0.2141,-0.2106,-0.2083,-0.2092,-0.2075,-0.2072,-0.206,-0.2078,-0.2081,-0.2082,-0.2099,-0.2102,-0.2061,-0.2061,-0.206,-0.206,0,-0.2145,-0.2176,-0.2191,-0.2229,-0.2243,-0.2262,-0.2271,-0.2273,-0.2263,-0.2256,-0.2236,-0.2193,-0.2159,-0.2153,-0.2125,-0.2121,-0.212,-0.2091,-0.2063,-0.2092,-0.2108,-0.211,-0.2067,-0.2065,-0.2064,-0.2063,0,0,-0.2138,-0.2201,-0.2207,-0.2229,-0.2263,-0.2275,-0.2292,-0.2304,-0.2308,-0.2292,-0.229,-0.225,-0.2226,-0.22,-0.2167,-0.2156,-0.2181,-0.2133,-0.2131,-0.2157,-0.218,-0.2221,-0.2227,-0.2158,-0.2158,-0.2158,-0.22,0,-0.2158,-0.2214,-0.2241,-0.2282,-0.2309,-0.232,-0.2335,-0.2342,-0.2337,-0.2333,-0.2296,-0.2277,-0.2245,-0.2229,-0.2215,-0.2179,-0.2183,-0.2173,-0.2141,-0.214,-0.2178,-0.2229,-0.2297,-0.2343,-0.2202,-0.2202,-0.2202,0,-0.2177,-0.2214,-0.2262,-0.2311,-0.2323,-0.2342,-0.236,-0.2375,-0.2374,-0.237,-0.235,-0.2321,-0.2297,-0.2264,-0.2233,-0.223,-0.2212,-0.2191,-0.2192,-0.2197,-0.2184,-0.2283,-0.2351,-0.2374,-0.2205,-0.2205,-0.2204,0,-0.2154,-0.2225,-0.2259,-0.2277,-0.2333,-0.2346,-0.2365,-0.2379,-0.2389,-0.2386,-0.2393,-0.2359,-0.2342,-0.2307,-0.227,-0.2252,-0.2246,-0.2213,-0.224,-0.2243,-0.2276,-0.2282,-0.2362,-0.2198,-0.2198,-0.2198,-0.2198,0,-0.216,-0.2187,-0.2251,-0.2269,-0.2296,-0.2339,-0.236,-0.2373,-0.2398,-0.2422,-0.2402,-0.2409,-0.2349,-0.2338,-0.2297,-0.229,-0.2271,-0.2258,-0.2256,-0.2309,-0.2318,-0.2315,-0.2291,-0.2199,-0.2199,-0.2199,-0.2199,0,-0.2124,-0.2173,-0.2208,-0.2269,-0.2286,-0.2297,-0.2352,-0.2377,-0.2405,-0.2436,-0.2439,-0.2445,-0.2444,-0.2405,-0.2361,-0.2338,-0.232,-0.2314,-0.24,-0.2407,-0.2449,-0.2426,-0.2404,-0.2378,-0.2356,-0.2357,-0.2359,0,-0.2111,-0.2131,-0.2188,-0.2206,-0.2231,-0.2266,-0.2302,-0.2355,-0.2394,-0.2463,-0.2484,-0.2499,-0.2525,-0.2501,-0.2475,-0.2452,-0.2378,-0.2474,-0.244,-0.248,-0.2452,-0.2376,-0.2349,-0.253,-0.2532,-0.2534,-0.2535,0,-0.2069,-0.2086,-0.211,-0.2152,-0.2189,-0.2237,-0.2297,-0.2333,-0.242,-0.2474,-0.2557,-0.2589,-0.2623,-0.2654,-0.2624,-0.2581,-0.2482,-0.2513,-0.2525,-0.2576,-0.2526,-0.2493,-0.2489,-0.2553,-0.2551,-0.255,-0.2549,-0.2548,-0.2013,-0.2012,-0.2043,-0.2073,-0.2125,-0.2186,-0.2183,-0.2303,-0.2371,-0.246,-0.2583,-0.2675,-0.2798,-0.2785,-0.2746,-0.2739,-0.2613,-0.2698,-0.2665,-0.2583,-0.2562,-0.2614,-0.2686,-0.2685,-0.2684,-0.2684,-0.2683,0,-0.1924,-0.1934,-0.1968,-0.1987,-0.2004,-0.2069,-0.2155,-0.2147,-0.2214,-0.2429,-0.2539,-0.2832,-0.292,-0.296,-0.3008,-0.2936,-0.2828,-0.2849,-0.2771,-0.2731,-0.2781,-0.2796,-0.2932,-0.2932,-0.2932,-0.2932,-0.2932,-0.2932,-0.1868,-0.1852,-0.1873,-0.1846,-0.1867,-0.1841,-0.1861,-0.1903,-0.2015,-0.2219,-0.2464,-0.2669,-0.28,-0.3159,-0.3168,-0.3063,-0.2935,-0.288,-0.2787,-0.2867,-0.285,-0.2834,-0.2846,-0.2991,-0.299,-0.2746,-0.2745,-0.2744]},{"header":{"parameterUnit":"m.s-1","parameterCategory":2,"la1":30.2991,"la2":30.254,"lo1":-89.0895,"lo2":-89.0444,"dy":0.0017,"dx":0.0017,"nx":28,"ny":28,"refTime":"2024-06-19T03:00:00:Z","depth":"0","parameterNumber":3,"parameterNumberName":"V-component_of_CURRENTS"},"data":[0,0,0,0,0,0,0,0,0,0,0,0,0,0,0,0,0,0,0,0,0,0,0,0,0,0,0,0,0,0,0,0,0,0,0,0,0,0,0,0,0,0,0,0,0,0,0,0,0,0,0,0,0,0,0,0,0,0,-0.0218,-0.0216,0,-0.0131,-0.013,-0.0129,-0.0094,-0.0094,-0.0094,-0.0094,-0.0034,-0.0033,-0.0031,0,0,0,0,0,0,0,0,0,0,0,0,0,-0.0337,-0.0335,-0.0218,-0.0216,-0.0215,-0.0131,-0.013,-0.0129,-0.0094,-0.0094,-0.0094,-0.0094,-0.0035,-0.0033,-0.0031,0,0,0,0,0,0,0,0,0,0,0,0,0,-0.0273,-0.0334,-0.0218,-0.0186,-0.0183,-0.0131,-0.013,-0.0128,-0.0094,-0.0094,-0.0094,-0.0094,-0.0035,-0.0033,-0.003,-0.0013,0,0,-0.0023,-0.0022,0,0,0,0,0,0,0,0,-0.0276,-0.0268,-0.0192,-0.0188,-0.0184,-0.0122,-0.015,-0.0091,-0.0094,-0.0129,-0.0094,-0.0094,-0.0065,-0.006,-0.0045,-0.0011,-0.0008,-0.0023,-0.0021,-0.002,-0.0019,0,0,0,0,0,0,0,-0.0281,-0.0272,-0.0185,-0.0191,-0.0186,-0.0171,-0.0162,-0.0138,-0.0099,-0.0126,-0.0123,-0.0111,-0.0063,-0.0048,-0.0044,-0.0007,-0.0023,-0.0021,-0.0019,-0.0018,0.0052,0.0053,0,0,0,0,0,0,-0.0289,-0.0276,-0.0188,-0.0182,-0.023,-0.0169,-0.0159,-0.0143,-0.0099,-0.0092,-0.0111,-0.0109,-0.0052,-0.0047,-0.0041,-0.001,-0.002,-0.0018,-0.0016,0.0052,0.0052,0.0053,0,0,0,0,0,0,-0.0292,-0.0282,-0.0191,-0.0226,-0.0213,-0.0166,-0.0149,-0.0141,-0.0126,-0.0087,-0.008,-0.0103,-0.0052,-0.0045,-0.0015,-0.0008,-0.0017,-0.0014,0.0051,0.0052,0.0053,0.0048,0,0,0,0,0,0,-0.0295,-0.0283,-0.0281,-0.0227,-0.0212,-0.0164,-0.0148,-0.0139,-0.0117,-0.0115,-0.0078,-0.0072,-0.0051,-0.0018,-0.0012,-0.0005,-0.0012,0.0051,0.0052,0.0052,0.0047,0.0048,0.0048,0,0,0,0,0,-0.03,-0.03,-0.0282,-0.0271,-0.0208,-0.0164,-0.0155,-0.0123,-0.0117,-0.0111,-0.0081,-0.0073,-0.001,-0.0016,-0.0009,-0.0,0.0051,0.0052,0.0052,0.0047,0.0048,0.0048,0,0,0,0,0,0,-0.036,-0.0295,-0.0274,-0.0256,-0.0213,-0.0158,-0.0152,-0.0126,-0.0097,-0.0099,-0.0064,-0.0056,-0.0029,-0.0014,-0.0021,0.0022,0.002,0.0022,0.0013,0.0014,0.0015,0.0008,-0.001,0,0,0,0,0,-0.0369,-0.0348,-0.0285,-0.0273,-0.0254,-0.0203,-0.0184,-0.0158,-0.012,-0.0108,-0.0076,-0.0048,-0.0019,-0.0003,0.0021,0.0048,0.0068,0.0057,0.0057,0.0058,0.0057,0.0095,0.0099,0.0056,0.0056,0.0056,0,0,-0.0392,-0.0352,-0.0343,-0.0284,-0.0252,-0.0223,-0.0193,-0.0165,-0.014,-0.0106,-0.0074,-0.0046,-0.0013,0.0018,0.0031,0.0032,0.0082,0.0059,0.0059,0.0058,0.0096,0.01,0.0104,0.0056,0.0056,0.0056,0,0,-0.0425,-0.0389,-0.0381,-0.0342,-0.0288,-0.0249,-0.0241,-0.0181,-0.0156,-0.0116,-0.0087,-0.0051,-0.001,0.0024,0.0044,0.0062,0.0081,0.0064,0.0067,0.0104,0.0108,0.0111,0.0148,0.0155,0.0068,0.0068,0.0068,0,-0.0459,-0.043,-0.0375,-0.0353,-0.0324,-0.0262,-0.0246,-0.0206,-0.0143,-0.0116,-0.0112,-0.0031,-0.0006,0.0046,0.0052,0.0064,0.0086,0.0062,0.0105,0.0109,0.0112,0.015,0.0157,0.0068,0.0068,0.0068,0.0068,0,-0.0477,-0.0453,-0.0446,-0.039,-0.0353,-0.0331,-0.026,-0.0224,-0.0186,-0.0139,-0.0082,-0.0036,0.0014,0.0028,0.0046,0.009,0.0097,0.0098,0.0102,0.0116,0.0155,0.0163,0.0068,0.0068,0.0068,0.0068,0,0,-0.0554,-0.0476,-0.0474,-0.045,-0.0369,-0.0341,-0.0292,-0.0224,-0.0189,-0.013,-0.008,-0.0024,0.0009,0.0033,0.0068,0.0102,0.015,0.0109,0.0111,0.0144,0.0233,0.0291,0.0305,0.0157,0.0158,0.0159,0.0251,0,-0.0586,-0.0566,-0.0504,-0.0475,-0.0456,-0.037,-0.0326,-0.0256,-0.0192,-0.0128,-0.0061,-0.0012,0.001,0.0033,0.0076,0.0133,0.017,0.0125,0.0215,0.0218,0.0266,0.0316,0.0395,0.0488,0.0259,0.0261,0.0262,0,-0.0622,-0.0599,-0.0586,-0.0506,-0.0489,-0.0456,-0.0366,-0.0318,-0.0208,-0.0156,-0.0082,-0.0027,0.005,0.0052,0.0167,0.0137,0.018,0.022,0.0225,0.0285,0.0291,0.0436,0.0511,0.0659,0.0274,0.0273,0.0272,0,-0.0709,-0.065,-0.0643,-0.0618,-0.0524,-0.0494,-0.0442,-0.0337,-0.0288,-0.0179,-0.013,-0.0028,0.0028,0.0098,0.0197,0.0178,0.0318,0.0302,0.0397,0.0401,0.0491,0.0501,0.0719,0.0369,0.0368,0.0368,0.0368,0,-0.0762,-0.0754,-0.0685,-0.0679,-0.0658,-0.0565,-0.0523,-0.0447,-0.034,-0.027,-0.016,-0.0079,0.0039,0.0142,0.0208,0.0349,0.0332,0.0414,0.0437,0.0492,0.0501,0.0649,0.0693,0.0372,0.0371,0.037,0.037,0,-0.0852,-0.081,-0.0797,-0.0721,-0.0699,-0.0688,-0.0588,-0.0552,-0.0433,-0.0336,-0.0304,-0.0117,0.0041,0.0165,0.0303,0.0376,0.0576,0.0527,0.0589,0.0617,0.0838,0.0877,0.1081,0.1098,0.0653,0.0655,0.0657,0,-0.0892,-0.0901,-0.0854,-0.0857,-0.0824,-0.0788,-0.0758,-0.0629,-0.0567,-0.0348,-0.03,-0.0112,0.0061,0.0311,0.0473,0.0633,0.0681,0.0768,0.0747,0.0889,0.0948,0.0958,0.0954,0.0864,0.0868,0.087,0.0872,0,-0.0968,-0.0958,-0.0949,-0.0967,-0.0949,-0.0914,-0.0845,-0.0801,-0.062,-0.0494,-0.0276,-0.0116,0.0198,0.0483,0.0701,0.0769,0.0888,0.0828,0.097,0.1139,0.117,0.1183,0.0758,0.0897,0.0894,0.0892,0.0891,0.089,-0.1025,-0.1051,-0.1054,-0.1069,-0.1057,-0.1021,-0.099,-0.0872,-0.0745,-0.0498,-0.0291,0.0025,0.0498,0.0855,0.0937,0.1198,0.1089,0.1265,0.1301,0.1298,0.1325,0.0954,0.1117,0.1116,0.1115,0.1114,0.1113,0,-0.1089,-0.1119,-0.1151,-0.1157,-0.1169,-0.1124,-0.1033,-0.0962,-0.0806,-0.0503,-0.0241,0.0421,0.0845,0.1192,0.1616,0.1712,0.1643,0.1728,0.1777,0.1742,0.1439,0.1461,0.1713,0.1713,0.1713,0.1712,0.1712,0.1712,-0.1124,-0.1185,-0.1207,-0.1257,-0.1253,-0.1225,-0.117,-0.1017,-0.0796,-0.0322,0.0115,0.0442,0.1102,0.1946,0.2284,0.2214,0.2231,0.2211,0.218,0.2018,0.1977,0.1938,0.1974,0.2329,0.2329,0.2469,0.2471,0.2472]}],[{"header":{"parameterUnit":"m.s-1","parameterCategory":2,"la1":30.2991,"la2":30.254,"lo1":-89.0895,"lo2":-89.0444,"dy":0.0017,"dx":0.0017,"nx":28,"ny":28,"refTime":"2024-06-19T03:00:00:Z","depth":"2","parameterNumber":2,"parameterNumberName":"U-component_of_CURRENTS"},"data":[0,0,0,0,0,0,0,0,0,0,0,0,0,0,0,0,0,0,0,0,0,0,0,0,0,0,0,0,0,0,0,0,0,0,0,0,0,0,0,0,0,0,0,0,0,0,0,0,0,0,0,0,0,0,0,0,0,0,-0.2102,-0.2102,0,-0.208,-0.2079,-0.2078,-0.204,-0.204,-0.204,-0.204,-0.194,-0.1937,-0.1935,0,0,0,0,0,0,0,0,0,0,0,0,0,-0.2027,-0.2029,-0.2102,-0.2102,-0.2102,-0.208,-0.2079,-0.2078,-0.204,-0.204,-0.204,-0.204,-0.1941,-0.1938,-0.1935,0,0,0,0,0,0,0,0,0,0,0,0,0,-0.2032,-0.2029,-0.2102,-0.2085,-0.2084,-0.208,-0.2079,-0.2078,-0.204,-0.204,-0.204,-0.204,-0.1942,-0.1938,-0.1934,-0.1916,0,0,-0.1923,-0.1921,0,0,0,0,0,0,0,0,-0.2032,-0.2034,-0.2087,-0.2086,-0.2085,-0.2068,-0.2016,-0.2022,-0.204,-0.205,-0.204,-0.2039,-0.1979,-0.1973,-0.1961,-0.1911,-0.1907,-0.1922,-0.192,-0.1918,-0.1917,0,0,0,0,0,0,0,-0.2032,-0.2035,-0.2087,-0.2088,-0.2086,-0.2051,-0.2051,-0.2017,-0.201,-0.205,-0.2048,-0.2055,-0.1977,-0.1965,-0.1959,-0.1905,-0.1922,-0.1919,-0.1917,-0.1915,-0.1851,-0.1852,0,0,0,0,0,0,-0.2052,-0.2035,-0.2088,-0.2087,-0.2064,-0.2053,-0.2053,-0.2069,-0.2012,-0.2006,-0.2056,-0.2054,-0.1972,-0.1963,-0.1955,-0.1951,-0.1918,-0.1915,-0.1913,-0.185,-0.1851,-0.1852,0,0,0,0,0,0,-0.2051,-0.2057,-0.2089,-0.2064,-0.2067,-0.2056,-0.2072,-0.2068,-0.2062,-0.2019,-0.201,-0.2055,-0.1971,-0.196,-0.1934,-0.1946,-0.1913,-0.191,-0.185,-0.1851,-0.1851,-0.193,0,0,0,0,0,0,-0.2049,-0.2057,-0.2066,-0.2066,-0.2069,-0.2099,-0.2073,-0.2068,-0.207,-0.2067,-0.2016,-0.2006,-0.197,-0.194,-0.1931,-0.194,-0.1907,-0.1849,-0.185,-0.1851,-0.1926,-0.1933,-0.1939,0,0,0,0,0,-0.2046,-0.2064,-0.2067,-0.2073,-0.2086,-0.21,-0.2098,-0.2084,-0.207,-0.2074,-0.2039,-0.2008,-0.194,-0.1938,-0.1926,-0.1935,-0.1849,-0.185,-0.1851,-0.1924,-0.1932,-0.1939,0,0,0,0,0,0,-0.2032,-0.2062,-0.2065,-0.2091,-0.2102,-0.2096,-0.2097,-0.2091,-0.2066,-0.2057,-0.2012,-0.2,-0.1982,-0.1948,-0.1947,-0.192,-0.189,-0.1889,-0.1949,-0.1956,-0.1962,-0.1961,-0.1904,0,0,0,0,0,-0.2038,-0.2059,-0.2081,-0.2099,-0.2109,-0.2104,-0.2105,-0.2101,-0.2086,-0.2075,-0.2043,-0.2005,-0.1977,-0.196,-0.1927,-0.1911,-0.1893,-0.1909,-0.1916,-0.1921,-0.1912,-0.1898,-0.1903,-0.1856,-0.1856,-0.1856,0,0,-0.2037,-0.2057,-0.2067,-0.2098,-0.2101,-0.2119,-0.2103,-0.2113,-0.2118,-0.2066,-0.2054,-0.2024,-0.1978,-0.1962,-0.1951,-0.1936,-0.1932,-0.1923,-0.1928,-0.1915,-0.19,-0.1905,-0.1909,-0.1857,-0.1856,-0.1856,0,0,-0.205,-0.2066,-0.2091,-0.2106,-0.2128,-0.2127,-0.2137,-0.214,-0.2131,-0.2125,-0.2088,-0.2068,-0.2025,-0.1997,-0.1977,-0.1996,-0.1966,-0.1989,-0.2017,-0.2005,-0.2008,-0.2011,-0.2029,-0.2033,-0.1992,-0.1992,-0.1992,0,-0.2047,-0.2084,-0.2097,-0.2125,-0.2138,-0.2137,-0.2161,-0.2156,-0.2147,-0.2141,-0.213,-0.2075,-0.2041,-0.2018,-0.2026,-0.2009,-0.2007,-0.1995,-0.2014,-0.2016,-0.2017,-0.2034,-0.2038,-0.1996,-0.1996,-0.1995,-0.1995,0,-0.2077,-0.2108,-0.2123,-0.216,-0.2174,-0.2194,-0.2202,-0.2205,-0.2196,-0.2188,-0.217,-0.2127,-0.2093,-0.2088,-0.206,-0.2056,-0.2055,-0.2026,-0.1998,-0.2027,-0.2043,-0.2045,-0.2002,-0.2,-0.1999,-0.1998,0,0,-0.2072,-0.2134,-0.214,-0.2162,-0.2194,-0.2207,-0.2223,-0.2236,-0.224,-0.2225,-0.2224,-0.2184,-0.2161,-0.2135,-0.2103,-0.2091,-0.2116,-0.2069,-0.2066,-0.2093,-0.2116,-0.2157,-0.2162,-0.2094,-0.2094,-0.2094,-0.2136,0,-0.2092,-0.2147,-0.2173,-0.2214,-0.224,-0.2251,-0.2267,-0.2273,-0.2269,-0.2266,-0.223,-0.2211,-0.2179,-0.2164,-0.215,-0.2115,-0.2119,-0.2109,-0.2077,-0.2076,-0.2113,-0.2164,-0.1919,-0.1939,-0.2138,-0.2138,-0.2138,0,-0.2111,-0.2148,-0.2195,-0.2243,-0.2255,-0.2274,-0.2293,-0.2307,-0.2307,-0.2303,-0.2284,-0.2255,-0.2232,-0.22,-0.2169,-0.2166,-0.2148,-0.2127,-0.2128,-0.2132,-0.2119,-0.1933,-0.1934,-0.2141,-0.2141,-0.2141,-0.214,0,-0.209,-0.2159,-0.2193,-0.2211,-0.2265,-0.2279,-0.2298,-0.2312,-0.2322,-0.2319,-0.2327,-0.2293,-0.2277,-0.2242,-0.2206,-0.2188,-0.2182,-0.2149,-0.2175,-0.2179,-0.1944,-0.1928,-0.2134,-0.2134,-0.2134,-0.2134,-0.2134,0,-0.2095,-0.2122,-0.2185,-0.2203,-0.2231,-0.2273,-0.2294,-0.2308,-0.2332,-0.2356,-0.2337,-0.2343,-0.2285,-0.2274,-0.2233,-0.2226,-0.2207,-0.2193,-0.2191,-0.1971,-0.1958,-0.2097,-0.2092,-0.2136,-0.2135,-0.2135,-0.2135,0,-0.2061,-0.2109,-0.2143,-0.2204,-0.2221,-0.2233,-0.2288,-0.2312,-0.234,-0.2371,-0.2374,-0.238,-0.2379,-0.234,-0.2296,-0.2273,-0.2248,-0.2249,-0.2022,-0.1994,-0.225,-0.2248,-0.2287,-0.2289,-0.229,-0.2292,-0.2293,0,-0.2048,-0.2067,-0.2124,-0.2143,-0.2168,-0.2203,-0.2239,-0.2292,-0.233,-0.2398,-0.2418,-0.2433,-0.2444,-0.2419,-0.2307,-0.2259,-0.2307,-0.2082,-0.2005,-0.2271,-0.2265,-0.2261,-0.2258,-0.1726,-0.1722,-0.1719,-0.1717,0,-0.2007,-0.2024,-0.2048,-0.209,-0.2126,-0.2174,-0.2234,-0.2268,-0.2354,-0.2392,-0.2473,-0.249,-0.2445,-0.2281,-0.2218,-0.2141,-0.2069,-0.2029,-0.2318,-0.1759,-0.1754,-0.1745,-0.1757,-0.169,-0.1693,-0.1695,-0.1696,-0.1697,-0.1952,-0.1951,-0.1982,-0.2012,-0.2063,-0.2122,-0.2119,-0.2169,-0.2212,-0.2179,-0.2383,-0.2294,-0.2265,-0.2017,-0.1942,-0.1829,-0.1969,-0.1872,-0.1874,-0.1881,-0.1842,-0.1843,-0.179,-0.1793,-0.1796,-0.1798,-0.18,0,-0.1837,-0.1873,-0.1907,-0.1925,-0.1908,-0.2007,-0.2091,-0.1976,-0.1933,-0.1967,-0.1975,-0.1775,-0.1734,-0.17,-0.1487,-0.1513,-0.1394,-0.1468,-0.1294,-0.1322,-0.1347,-0.1274,-0.1075,-0.1073,-0.1071,-0.107,0,0,-0.1774,-0.1745,-0.1765,-0.1719,-0.1765,-0.1665,-0.1682,-0.1531,-0.1459,-0.1286,-0.1254,-0.1459,-0.1595,-0.1302,-0.1269,-0.1142,-0.119,-0.1062,-0.1631,-0.1444,-0.1466,-0.1564,-0.1484,0,0,0,0,0]},{"header":{"parameterUnit":"m.s-1","parameterCategory":2,"la1":30.2991,"la2":30.254,"lo1":-89.0895,"lo2":-89.0444,"dy":0.0017,"dx":0.0017,"nx":28,"ny":28,"refTime":"2024-06-19T03:00:00:Z","depth":"2","parameterNumber":3,"parameterNumberName":"V-component_of_CURRENTS"},"data":[0,0,0,0,0,0,0,0,0,0,0,0,0,0,0,0,0,0,0,0,0,0,0,0,0,0,0,0,0,0,0,0,0,0,0,0,0,0,0,0,0,0,0,0,0,0,0,0,0,0,0,0,0,0,0,0,0,0,-0.0205,-0.0204,0,-0.0118,-0.0118,-0.0117,-0.0082,-0.0082,-0.0082,-0.0082,-0.0023,-0.0022,-0.002,0,0,0,0,0,0,0,0,0,0,0,0,0,-0.0324,-0.0322,-0.0205,-0.0204,-0.0203,-0.0119,-0.0117,-0.0116,-0.0082,-0.0082,-0.0082,-0.0082,-0.0024,-0.0022,-0.002,0,0,0,0,0,0,0,0,0,0,0,0,0,-0.026,-0.0322,-0.0205,-0.0174,-0.017,-0.0119,-0.0117,-0.0116,-0.0082,-0.0082,-0.0082,-0.0082,-0.0024,-0.0022,-0.002,-0.0002,0,0,-0.0012,-0.0011,0,0,0,0,0,0,0,0,-0.0264,-0.0256,-0.018,-0.0176,-0.0172,-0.011,-0.0138,-0.0079,-0.0082,-0.0117,-0.0082,-0.0082,-0.0054,-0.0049,-0.0034,0.0,0.0003,-0.0012,-0.001,-0.0009,-0.0009,0,0,0,0,0,0,0,-0.0268,-0.0259,-0.0172,-0.0179,-0.0174,-0.0159,-0.015,-0.0126,-0.0088,-0.0114,-0.0111,-0.0099,-0.0052,-0.0037,-0.0033,0.0004,-0.0012,-0.001,-0.0008,-0.0007,0.0063,0.0063,0,0,0,0,0,0,-0.0276,-0.0263,-0.0175,-0.017,-0.0217,-0.0156,-0.0147,-0.0131,-0.0087,-0.008,-0.0099,-0.0098,-0.0041,-0.0035,-0.003,0.0001,-0.0009,-0.0007,-0.0006,0.0063,0.0063,0.0063,0,0,0,0,0,0,-0.0279,-0.0269,-0.0179,-0.0214,-0.0201,-0.0154,-0.0137,-0.0129,-0.0114,-0.0075,-0.0069,-0.0092,-0.0041,-0.0034,-0.0004,0.0003,-0.0006,-0.0004,0.0062,0.0063,0.0063,0.0059,0,0,0,0,0,0,-0.0283,-0.027,-0.0269,-0.0214,-0.0199,-0.0152,-0.0136,-0.0127,-0.0105,-0.0103,-0.0066,-0.0061,-0.004,-0.0007,-0.0001,0.0007,-0.0002,0.0062,0.0062,0.0063,0.0059,0.0059,0.006,0,0,0,0,0,-0.0287,-0.0287,-0.0269,-0.0259,-0.0196,-0.0152,-0.0143,-0.0111,-0.0105,-0.0099,-0.0069,-0.0062,0.0001,-0.0005,0.0002,0.0011,0.0061,0.0062,0.0063,0.0058,0.0059,0.006,0,0,0,0,0,0,-0.0347,-0.0282,-0.0261,-0.0244,-0.0201,-0.0145,-0.014,-0.0114,-0.0085,-0.0087,-0.0053,-0.0044,-0.0018,-0.0003,-0.001,0.0033,0.0031,0.0033,0.0025,0.0026,0.0026,0.0019,0.0,0,0,0,0,0,-0.0356,-0.0335,-0.0273,-0.0261,-0.0241,-0.0191,-0.0172,-0.0145,-0.0108,-0.0096,-0.0065,-0.0036,-0.0008,0.0009,0.0033,0.0059,0.0079,0.0068,0.0069,0.0069,0.0068,0.0106,0.011,0.0066,0.0066,0.0066,0,0,-0.0379,-0.0339,-0.033,-0.0271,-0.0239,-0.0211,-0.018,-0.0153,-0.0127,-0.0095,-0.0062,-0.0035,-0.0001,0.003,0.0043,0.0044,0.0093,0.007,0.007,0.0069,0.0107,0.0111,0.0115,0.0067,0.0067,0.0067,0,0,-0.0412,-0.0376,-0.0368,-0.0329,-0.0275,-0.0236,-0.0229,-0.0169,-0.0143,-0.0104,-0.0075,-0.0039,0.0001,0.0036,0.0056,0.0075,0.0093,0.0076,0.008,0.0116,0.012,0.0124,0.016,0.0167,0.008,0.008,0.008,0,-0.0446,-0.0417,-0.0362,-0.034,-0.0311,-0.0249,-0.0233,-0.0193,-0.0131,-0.0104,-0.01,-0.0019,0.0006,0.0059,0.0065,0.0077,0.0098,0.0074,0.0117,0.0121,0.0125,0.0161,0.0169,0.008,0.008,0.008,0.008,0,-0.0464,-0.0439,-0.0433,-0.0377,-0.034,-0.0317,-0.0247,-0.0211,-0.0173,-0.0126,-0.007,-0.0023,0.0026,0.0041,0.0059,0.0103,0.011,0.0111,0.0114,0.0129,0.0166,0.0175,0.008,0.008,0.008,0.008,0,0,-0.054,-0.0462,-0.046,-0.0436,-0.0355,-0.0328,-0.0278,-0.0211,-0.0175,-0.0116,-0.0067,-0.001,0.0022,0.0046,0.0081,0.0116,0.0163,0.0121,0.0123,0.0156,0.0245,0.0301,0.0315,0.017,0.0171,0.0172,0.0263,0,-0.0572,-0.0552,-0.049,-0.046,-0.0442,-0.0356,-0.0312,-0.0242,-0.0178,-0.0115,-0.0047,0.0001,0.0024,0.0046,0.0089,0.0146,0.0183,0.0138,0.0227,0.023,0.0276,0.0326,0.0255,0.0334,0.0271,0.0272,0.0273,0,-0.0608,-0.0584,-0.0571,-0.0492,-0.0474,-0.0442,-0.0352,-0.0304,-0.0194,-0.0143,-0.0069,-0.0014,0.0064,0.0066,0.0179,0.0149,0.0193,0.0232,0.0237,0.0295,0.0301,0.0308,0.0351,0.0287,0.0285,0.0284,0.0284,0,-0.0694,-0.0636,-0.0628,-0.0603,-0.0509,-0.048,-0.0428,-0.0323,-0.0274,-0.0166,-0.0117,-0.0015,0.004,0.0111,0.0209,0.019,0.0329,0.0314,0.0406,0.041,0.0372,0.0371,0.038,0.038,0.0379,0.0379,0.0379,0,-0.0747,-0.074,-0.067,-0.0664,-0.0643,-0.0551,-0.0509,-0.0433,-0.0327,-0.0257,-0.0147,-0.0067,0.0051,0.0154,0.0219,0.0358,0.0342,0.0423,0.0446,0.037,0.0368,0.0338,0.0332,0.0383,0.0382,0.0381,0.0381,0,-0.0837,-0.0795,-0.0782,-0.0706,-0.0685,-0.0674,-0.0575,-0.0538,-0.0421,-0.0325,-0.0293,-0.0106,0.005,0.0175,0.0312,0.0384,0.0492,0.0534,0.0445,0.0457,0.0542,0.0535,0.0652,0.0655,0.0657,0.0659,0.0661,0,-0.0877,-0.0886,-0.0839,-0.0843,-0.081,-0.0774,-0.0744,-0.0616,-0.0554,-0.0337,-0.029,-0.0103,0.0063,0.0312,0.0434,0.0583,0.0572,0.0615,0.0574,0.0565,0.0574,0.0563,0.0552,0.0515,0.0515,0.0515,0.0516,0,-0.0952,-0.0943,-0.0934,-0.0953,-0.0935,-0.09,-0.0832,-0.0788,-0.0609,-0.0487,-0.0272,-0.0119,0.0157,0.0343,0.0544,0.0602,0.059,0.063,0.0647,0.0467,0.0446,0.0452,0.0444,0.0518,0.0518,0.0518,0.0518,0.0518,-0.101,-0.1036,-0.1039,-0.1054,-0.1043,-0.1008,-0.0977,-0.0869,-0.0748,-0.0536,-0.0332,-0.0097,0.0151,0.0416,0.0563,0.0652,0.0661,0.0665,0.0659,0.0653,0.0632,0.0618,0.0718,0.0719,0.0719,0.072,0.072,0,-0.1064,-0.1104,-0.1136,-0.1142,-0.1144,-0.1111,-0.1021,-0.0952,-0.0812,-0.0619,-0.0401,-0.0116,0.0137,0.0357,0.0516,0.067,0.0602,0.0673,0.056,0.0557,0.0555,0.0524,0.0584,0.0584,0.0584,0.0584,0,0,-0.1096,-0.1152,-0.1174,-0.122,-0.1226,-0.1189,-0.1135,-0.1014,-0.0871,-0.0668,-0.0501,-0.0242,0.0102,0.0203,0.0396,0.0483,0.0454,0.046,0.0549,0.0386,0.0381,0.0532,0.048,0,0,0,0,0]}],[{"header":{"parameterUnit":"m.s-1","parameterCategory":2,"la1":30.2991,"la2":30.254,"lo1":-89.0895,"lo2":-89.0444,"dy":0.0017,"dx":0.0017,"nx":28,"ny":28,"refTime":"2024-06-19T03:00:00:Z","depth":"4","parameterNumber":2,"parameterNumberName":"U-component_of_CURRENTS"},"data":[0,0,0,0,0,0,0,0,0,0,0,0,0,0,0,0,0,0,0,0,0,0,0,0,0,0,0,0,0,0,0,0,0,0,0,0,0,0,0,0,0,0,0,0,0,0,0,0,0,0,0,0,0,0,0,0,0,0,-0.0998,-0.0998,0,-0.1008,-0.1008,-0.1008,-0.1023,-0.1023,-0.1024,-0.1024,-0.1024,-0.1023,-0.1023,0,0,0,0,0,0,0,0,0,0,0,0,0,-0.0946,-0.0947,-0.0997,-0.0998,-0.0998,-0.1008,-0.1008,-0.1008,-0.1023,-0.1023,-0.1024,-0.1025,-0.1024,-0.1023,-0.1023,0,0,0,0,0,0,0,0,0,0,0,0,0,-0.0962,-0.0948,-0.0997,-0.1009,-0.101,-0.1008,-0.1008,-0.1008,-0.1023,-0.1023,-0.1024,-0.1025,-0.1024,-0.1023,-0.1023,-0.1003,0,0,-0.102,-0.102,0,0,0,0,0,0,0,0,-0.0961,-0.0963,-0.1007,-0.1008,-0.1009,-0.1017,-0.099,-0.1006,-0.1023,-0.1015,-0.1024,-0.1025,-0.1021,-0.1021,-0.1018,-0.1003,-0.1003,-0.102,-0.102,-0.102,-0.1019,0,0,0,0,0,0,0,-0.096,-0.0963,-0.0999,-0.1007,-0.1009,-0.0998,-0.1001,-0.0992,-0.1012,-0.1016,-0.1018,-0.1023,-0.1022,-0.1019,-0.1018,-0.1003,-0.102,-0.102,-0.1019,-0.1019,-0.1024,-0.1025,0,0,0,0,0,0,-0.0965,-0.0962,-0.0999,-0.1,-0.0989,-0.0999,-0.1002,-0.1012,-0.1012,-0.1014,-0.1022,-0.1023,-0.1019,-0.1019,-0.1018,-0.1059,-0.102,-0.1019,-0.1018,-0.1024,-0.1024,-0.1025,0,0,0,0,0,0,-0.0964,-0.0968,-0.0998,-0.0982,-0.0986,-0.1,-0.101,-0.1012,-0.1032,-0.1017,-0.1019,-0.1044,-0.102,-0.1019,-0.1031,-0.1056,-0.1019,-0.1018,-0.1023,-0.1024,-0.1025,-0.1099,0,0,0,0,0,0,-0.0962,-0.0968,-0.0984,-0.0983,-0.0987,-0.1017,-0.1009,-0.1011,-0.1034,-0.1036,-0.1036,-0.1035,-0.1021,-0.1032,-0.103,-0.1055,-0.1017,-0.1022,-0.1023,-0.1024,-0.1096,-0.1102,-0.1108,0,0,0,0,0,-0.0961,-0.0978,-0.0985,-0.099,-0.1007,-0.1018,-0.102,-0.1029,-0.1035,-0.1049,-0.1048,-0.1037,-0.1037,-0.1032,-0.1029,-0.1055,-0.1022,-0.1023,-0.1024,-0.1093,-0.1101,-0.1108,0,0,0,0,0,0,-0.0965,-0.0982,-0.0989,-0.1012,-0.1024,-0.1023,-0.1038,-0.1043,-0.1052,-0.1059,-0.1044,-0.1043,-0.1062,-0.1044,-0.1039,-0.1057,-0.1027,-0.1028,-0.1081,-0.1088,-0.1094,-0.1094,-0.1017,0,0,0,0,0,-0.0974,-0.0993,-0.1004,-0.1025,-0.1034,-0.104,-0.1049,-0.1057,-0.1061,-0.1068,-0.1069,-0.1064,-0.106,-0.1065,-0.1057,-0.1068,-0.1052,-0.1081,-0.1087,-0.1092,-0.109,-0.108,-0.1085,-0.1029,-0.1029,-0.1029,0,0,-0.0981,-0.0993,-0.1005,-0.1027,-0.1036,-0.1057,-0.1047,-0.107,-0.109,-0.1064,-0.1096,-0.1087,-0.1067,-0.1081,-0.1088,-0.1074,-0.1105,-0.1094,-0.1099,-0.1093,-0.1082,-0.1088,-0.1092,-0.103,-0.103,-0.103,0,0,-0.0999,-0.1018,-0.1039,-0.1055,-0.1078,-0.1083,-0.1097,-0.1111,-0.1123,-0.1147,-0.1131,-0.1136,-0.114,-0.1127,-0.112,-0.1151,-0.1136,-0.1156,-0.1191,-0.1183,-0.1188,-0.1191,-0.1203,-0.1207,-0.1161,-0.1161,-0.1161,0,-0.1009,-0.1038,-0.1047,-0.1072,-0.1091,-0.11,-0.1128,-0.1138,-0.1157,-0.1166,-0.117,-0.117,-0.1158,-0.1161,-0.1175,-0.1165,-0.1166,-0.117,-0.1192,-0.1195,-0.1198,-0.1208,-0.1212,-0.1165,-0.1165,-0.1164,-0.1164,0,-0.1035,-0.107,-0.1085,-0.1121,-0.1141,-0.1168,-0.1185,-0.1209,-0.1227,-0.1232,-0.1252,-0.1233,-0.1233,-0.1233,-0.1216,-0.123,-0.1228,-0.1201,-0.1177,-0.1208,-0.1217,-0.122,-0.117,-0.1169,-0.1168,-0.1167,0,0,-0.1024,-0.1092,-0.1099,-0.1129,-0.1172,-0.1189,-0.1228,-0.1257,-0.1282,-0.1297,-0.1323,-0.1314,-0.1308,-0.1297,-0.1278,-0.1271,-0.1299,-0.1254,-0.1252,-0.1272,-0.1305,-0.1245,-0.1242,-0.1284,-0.1284,-0.1284,-0.1313,0,-0.1044,-0.1101,-0.1131,-0.119,-0.1219,-0.1249,-0.1284,-0.1312,-0.1332,-0.1358,-0.1342,-0.1356,-0.1331,-0.1338,-0.133,-0.1301,-0.1305,-0.1295,-0.1265,-0.1264,-0.1212,-0.1242,-0.1285,-0.1315,-0.1315,-0.1315,-0.1316,0,-0.105,-0.1093,-0.1155,-0.1229,-0.1245,-0.1284,-0.1338,-0.1371,-0.1402,-0.1418,-0.1428,-0.1419,-0.1416,-0.1387,-0.1365,-0.1365,-0.1346,-0.1322,-0.1322,-0.1236,-0.1207,-0.1269,-0.132,-0.1319,-0.1319,-0.1319,-0.1318,0,-0.1018,-0.1105,-0.1157,-0.1182,-0.1265,-0.1302,-0.1345,-0.1389,-0.1417,-0.1455,-0.148,-0.1472,-0.1474,-0.1445,-0.1405,-0.1394,-0.1378,-0.1351,-0.1282,-0.1279,-0.1292,-0.1287,-0.1338,-0.1338,-0.1338,-0.1338,-0.1338,0,-0.1008,-0.1051,-0.1153,-0.1178,-0.1242,-0.1304,-0.1363,-0.1401,-0.1456,-0.1487,-0.1508,-0.1513,-0.1489,-0.1474,-0.1432,-0.1368,-0.1402,-0.1292,-0.1277,-0.1326,-0.1324,-0.1295,-0.129,-0.1339,-0.1339,-0.1338,-0.1338,0,-0.0953,-0.1023,-0.1085,-0.119,-0.1227,-0.1268,-0.137,-0.1406,-0.1472,-0.1513,-0.153,-0.1552,-0.1531,-0.1504,-0.1457,-0.1398,-0.1343,-0.1313,-0.1393,-0.1381,-0.1249,-0.1247,-0.1241,-0.1239,-0.1237,-0.1236,-0.1234,0,-0.0926,-0.0956,-0.1074,-0.1113,-0.1166,-0.1246,-0.1298,-0.1392,-0.143,-0.1517,-0.1526,-0.1543,-0.1542,-0.1435,-0.1409,-0.1344,-0.1314,-0.1299,-0.1247,-0.1251,-0.1237,-0.1238,-0.1238,-0.1232,-0.1231,-0.1231,-0.123,0,-0.0865,-0.0914,-0.0963,-0.1045,-0.1114,-0.1186,-0.1272,-0.1295,-0.1401,-0.1484,-0.1486,-0.1464,-0.1442,-0.1382,-0.1349,-0.1292,-0.1312,-0.1281,-0.1283,-0.1234,-0.124,-0.1228,-0.1231,-0.1225,-0.1226,-0.1226,-0.1226,0,-0.0807,-0.0822,-0.0888,-0.095,-0.1035,-0.1086,-0.1156,-0.1218,-0.127,-0.139,-0.1384,-0.14,-0.1438,-0.1356,-0.1316,-0.1267,-0.1233,-0.1187,-0.1193,-0.12,-0.1165,-0.1165,-0.1116,0,0,0,0,0,-0.0735,-0.0735,-0.0788,-0.084,-0.0924,-0.0966,-0.1113,-0.1189,-0.1309,-0.129,-0.1339,-0.1318,-0.1269,-0.1264,-0.1195,-0.1263,-0.1218,-0.1178,-0.1166,-0.1192,-0.1199,-0.1158,0,0,0,0,0,0,-0.0681,-0.0712,-0.0738,-0.073,-0.0741,-0.0818,-0.0905,-0.1005,-0.1014,-0.1141,-0.1115,-0.1217,-0.1172,-0.1254,-0.1144,-0.1147,-0.1115,-0.1201,-0.1198,-0.1189,-0.1195,-0.12,-0.116,0,0,0,0,0]},{"header":{"parameterUnit":"m.s-1","parameterCategory":2,"la1":30.2991,"la2":30.254,"lo1":-89.0895,"lo2":-89.0444,"dy":0.0017,"dx":0.0017,"nx":28,"ny":28,"refTime":"2024-06-19T03:00:00:Z","depth":"4","parameterNumber":3,"parameterNumberName":"V-component_of_CURRENTS"},"data":[0,0,0,0,0,0,0,0,0,0,0,0,0,0,0,0,0,0,0,0,0,0,0,0,0,0,0,0,0,0,0,0,0,0,0,0,0,0,0,0,0,0,0,0,0,0,0,0,0,0,0,0,0,0,0,0,0,0,-0.0047,-0.0047,0,0.0015,0.0015,0.0016,0.0039,0.0039,0.0039,0.0039,0.0076,0.0077,0.0078,0,0,0,0,0,0,0,0,0,0,0,0,0,-0.0133,-0.0132,-0.0047,-0.0046,-0.0046,0.0015,0.0015,0.0016,0.0039,0.0039,0.0039,0.0039,0.0076,0.0077,0.0078,0,0,0,0,0,0,0,0,0,0,0,0,0,-0.0087,-0.0131,-0.0048,-0.0026,-0.0023,0.0015,0.0015,0.0016,0.0039,0.0039,0.0039,0.0039,0.0076,0.0077,0.0079,0.009,0,0,0.0083,0.0084,0,0,0,0,0,0,0,0,-0.009,-0.0084,-0.003,-0.0027,-0.0024,0.002,-0.0001,0.004,0.0039,0.0014,0.0039,0.0039,0.0056,0.0059,0.007,0.0092,0.0094,0.0084,0.0085,0.0085,0.0086,0,0,0,0,0,0,0,-0.0093,-0.0087,-0.0024,-0.0029,-0.0025,-0.0014,-0.0008,0.0007,0.0033,0.0016,0.0019,0.0028,0.0057,0.0068,0.0071,0.0094,0.0084,0.0085,0.0086,0.0087,0.0144,0.0144,0,0,0,0,0,0,-0.0098,-0.009,-0.0026,-0.0022,-0.0056,-0.0013,-0.0006,0.0005,0.0034,0.0039,0.0028,0.0029,0.0066,0.0069,0.0072,0.0103,0.0085,0.0087,0.0088,0.0143,0.0144,0.0145,0,0,0,0,0,0,-0.01,-0.0093,-0.0029,-0.0054,-0.0045,-0.0011,0.0001,0.0006,0.0017,0.0043,0.0047,0.0033,0.0066,0.007,0.0093,0.0104,0.0087,0.0089,0.0143,0.0143,0.0144,0.0154,0,0,0,0,0,0,-0.0103,-0.0094,-0.0094,-0.0054,-0.0043,-0.001,0.0002,0.0008,0.0023,0.0025,0.0049,0.0052,0.0066,0.0091,0.0095,0.0106,0.009,0.0142,0.0143,0.0144,0.0153,0.0156,0.0157,0,0,0,0,0,-0.0106,-0.0107,-0.0095,-0.0087,-0.0042,-0.001,-0.0004,0.0019,0.0023,0.0027,0.005,0.0051,0.01,0.0093,0.0097,0.0109,0.0141,0.0143,0.0144,0.0153,0.0155,0.0157,0,0,0,0,0,0,-0.0149,-0.0103,-0.0089,-0.0077,-0.0047,-0.0005,-0.0003,0.0017,0.0038,0.0036,0.0061,0.0066,0.0089,0.0097,0.0089,0.0128,0.012,0.0122,0.0125,0.0128,0.013,0.0121,0.0091,0,0,0,0,0,-0.0156,-0.0143,-0.0098,-0.009,-0.0076,-0.004,-0.0026,-0.0008,0.002,0.0029,0.0052,0.0074,0.0098,0.0111,0.0128,0.0151,0.016,0.0161,0.0163,0.0165,0.0161,0.0192,0.0196,0.0149,0.0149,0.0149,0,0,-0.0173,-0.0145,-0.0139,-0.0098,-0.0076,-0.0054,-0.0033,-0.0014,0.0008,0.0029,0.0057,0.0078,0.0105,0.0133,0.0144,0.0142,0.0183,0.0167,0.0168,0.0163,0.0194,0.0198,0.0202,0.015,0.015,0.0149,0,0,-0.0195,-0.0172,-0.0168,-0.014,-0.0103,-0.0074,-0.0069,-0.0025,-0.0004,0.0027,0.0051,0.0084,0.0113,0.0146,0.0163,0.0186,0.019,0.0187,0.0195,0.0226,0.023,0.0233,0.0248,0.0253,0.0192,0.0192,0.0192,0,-0.0218,-0.02,-0.0164,-0.0148,-0.0128,-0.0084,-0.0072,-0.0039,0.0008,0.0029,0.0031,0.0099,0.0122,0.0172,0.0183,0.0192,0.02,0.0184,0.0228,0.0232,0.0236,0.025,0.0255,0.0193,0.0193,0.0193,0.0193,0,-0.023,-0.0216,-0.0212,-0.0173,-0.0147,-0.0131,-0.0077,-0.005,-0.0021,0.0016,0.0065,0.0107,0.0147,0.0165,0.0181,0.0225,0.0219,0.0224,0.0221,0.0241,0.0255,0.026,0.0194,0.0194,0.0193,0.0193,0,0,-0.0277,-0.0231,-0.023,-0.0217,-0.0158,-0.014,-0.0099,-0.0047,-0.0021,0.003,0.0068,0.0127,0.0152,0.0174,0.0207,0.024,0.0278,0.0241,0.0242,0.0253,0.0332,0.0312,0.0316,0.0289,0.029,0.0291,0.0331,0,-0.0298,-0.0289,-0.0248,-0.0231,-0.022,-0.0159,-0.0126,-0.0072,-0.0022,0.0026,0.0089,0.013,0.0157,0.0176,0.0218,0.0263,0.0292,0.0265,0.0313,0.0314,0.0292,0.0321,0.0294,0.0335,0.0337,0.0337,0.0338,0,-0.0318,-0.0309,-0.0306,-0.026,-0.0249,-0.0229,-0.0167,-0.013,-0.0044,-0.0006,0.0059,0.0108,0.018,0.0188,0.028,0.026,0.0292,0.0324,0.0327,0.0306,0.0304,0.0312,0.0348,0.0347,0.0346,0.0346,0.0345,0,-0.0376,-0.0343,-0.0348,-0.0332,-0.0276,-0.026,-0.0228,-0.0149,-0.0116,-0.0028,0.0004,0.0098,0.0141,0.0204,0.0282,0.0279,0.037,0.0374,0.0387,0.0385,0.0385,0.0381,0.0426,0.0426,0.0426,0.0426,0.0426,0,-0.0406,-0.0406,-0.038,-0.0381,-0.0382,-0.0319,-0.03,-0.0246,-0.0172,-0.0129,-0.0026,0.0028,0.0145,0.0221,0.028,0.0352,0.037,0.039,0.0399,0.0388,0.0384,0.0389,0.0384,0.0428,0.0427,0.0427,0.0427,0,-0.0456,-0.0442,-0.0448,-0.0417,-0.0411,-0.0414,-0.0364,-0.0344,-0.0261,-0.0201,-0.0175,-0.0028,0.0078,0.0187,0.0297,0.0342,0.0413,0.0428,0.0403,0.0409,0.0405,0.04,0.0447,0.0447,0.0447,0.0446,0.0446,0,-0.0477,-0.0491,-0.0496,-0.0515,-0.0504,-0.0498,-0.0492,-0.041,-0.0375,-0.0231,-0.0204,-0.0075,0.0024,0.0167,0.028,0.0395,0.0406,0.0437,0.043,0.0406,0.041,0.0405,0.0401,0.0446,0.0446,0.0446,0.0446,0,-0.0516,-0.0529,-0.0538,-0.0589,-0.0603,-0.0603,-0.0576,-0.0554,-0.0439,-0.0367,-0.0228,-0.0106,0.0018,0.0154,0.0247,0.0329,0.0419,0.0435,0.0436,0.043,0.0405,0.0408,0.0404,0.0445,0.0445,0.0445,0.0445,0,-0.0547,-0.0576,-0.0608,-0.0642,-0.0677,-0.0684,-0.0661,-0.0591,-0.0536,-0.0357,-0.0318,-0.0141,-0.0024,0.012,0.0207,0.0289,0.0305,0.0321,0.0328,0.033,0.0288,0.0239,0.0238,0,0,0,0,0,-0.0566,-0.0604,-0.0655,-0.0693,-0.0733,-0.074,-0.0701,-0.0658,-0.0543,-0.0464,-0.0381,-0.0257,-0.0066,0.0034,0.0106,0.0178,0.0298,0.0264,0.0313,0.044,0.0441,0.041,0,0,0,0,0,0,-0.0583,-0.0635,-0.0661,-0.0727,-0.0759,-0.0785,-0.076,-0.0684,-0.0617,-0.049,-0.0395,-0.0269,-0.0099,-0.0129,0.0093,0.0129,0.0164,0.0374,0.0375,0.044,0.044,0.0441,0.0409,0,0,0,0,0]}]]